Weather History for Ohio State University, OH

Change the Weather History Date:

Tuesday, May 6, 2014

  Actual Average Record
Temperature  
Mean Temperature 56 °F -  
Max Temperature 70 °F 68 °F 86 °F (2000)
Min Temperature 41 °F 47 °F 39 °F (2005)
Degree Days  
Heating Degree Days 10    
Growing Degree Days 6 (Base 50)    
Moisture  
Dew Point 37 °F    
Average Humidity 47    
Maximum Humidity 86    
Minimum Humidity 29    
Precipitation  
Precipitation 0.00 in - - ()
Sea Level Pressure  
Sea Level Pressure 29.98 in    
Wind  
Wind Speed 7 mph (NE)    
Max Wind Speed 13 mph    
Max Gust Speed -    
Visibility 10 miles    
Events      
Averages and records for this station are not official NWS values.
T = Trace of Precipitation, MM = Missing Value Source: NWS Daily Summary

Daily Weather History Graph

Daily Weather History Graph

Search for Another Location

Airport:

Trip Planner

Search our weather history database for the weather conditions in past years. The results will help you decide how hot, cold, wet, or windy it might be!

Date:

Astronomy

May. 06, 2014 Rise Set
Actual Time 6:26 AM EDT 8:32 PM EDT
Civil Twilight 5:56 AM EDT 9:02 PM EDT
Nautical Twilight 5:19 AM EDT 9:38 PM EDT
Astronomical Twilight 4:40 AM EDT 10:18 PM EDT
Moon 12:41 PM EDT (5/6) 1:50 AM EDT (5/6)
Length of Visible Light 15h 05m
Length of Day
14h 06m
Waxing Crescent, 46% of the Moon is Illuminated
May 6
Waxing Crescent
May 6
First Quarter
May 14
Full
May 21
Last Quarter
May 28
New

Hourly Weather History & Observations

Time (EDT) Temp. Windchill Dew Point Humidity Pressure Visibility Wind Dir Wind Speed Gust Speed Precip Events Conditions
12:53 AM 45.0 °F 43.5 °F 35.1 °F 68% 29.94 in 10.0 mi NNE 3.5 mph - N/A   Clear
2:53 AM 42.1 °F 37.1 °F 36.0 °F 79% 29.94 in 10.0 mi North 8.1 mph - N/A   Clear
3:53 AM 41.0 °F 36.4 °F 37.0 °F 86% 29.95 in 10.0 mi North 6.9 mph - N/A   Clear
7:53 AM 46.9 °F - 39.0 °F 74% 30.01 in 10.0 mi ENE 5.8 mph - N/A   Clear
8:53 AM 52.0 °F - 36.0 °F 54% 30.02 in 10.0 mi NE 10.4 mph - N/A   Clear
10:53 AM 59.0 °F - 34.0 °F 39% 30.02 in 10.0 mi ENE 9.2 mph - N/A   Clear
11:53 AM 62.1 °F - 34.0 °F 35% 30.02 in 10.0 mi NE 12.7 mph - N/A   Clear
12:53 PM 64.0 °F - 33.1 °F 31% 30.00 in 10.0 mi ENE 10.4 mph - N/A   Clear
1:53 PM 66.0 °F - 34.0 °F 30% 29.99 in 10.0 mi ENE 8.1 mph - N/A   Clear
2:53 PM 68.0 °F - 35.1 °F 30% 29.99 in 10.0 mi NNE 8.1 mph - N/A   Clear
3:53 PM 69.1 °F - 36.0 °F 30% 29.97 in 10.0 mi North - - N/A   Clear
4:53 PM 70.0 °F - 36.0 °F 29% 29.96 in 10.0 mi ENE 4.6 mph - N/A   Clear
5:53 PM 69.1 °F - 37.9 °F 32% 29.96 in 10.0 mi East 8.1 mph - N/A   Clear
6:53 PM 68.0 °F - 39.0 °F 35% 29.96 in 10.0 mi NE 6.9 mph - N/A   Clear
7:53 PM 64.9 °F - 39.9 °F 40% 29.96 in 10.0 mi NE 8.1 mph - N/A   Clear
8:53 PM 62.1 °F - 41.0 °F 46% 29.97 in 10.0 mi ENE 6.9 mph - N/A   Clear
9:53 PM 60.1 °F - 41.0 °F 49% 29.98 in 10.0 mi ENE 8.1 mph - N/A   Clear
10:53 PM 57.9 °F - 41.0 °F 53% 29.98 in 10.0 mi ENE 8.1 mph - N/A   Mostly Cloudy
11:53 PM 57.9 °F - 39.9 °F 51% 29.96 in 10.0 mi ENE 8.1 mph - N/A   Clear